Location: Coors Field
(39.7564°N, 104.9943°W)
Time: 04:46:44
(UTC-06:00)

ISS - Visible Passes

Search period start: 23 May 2017 00:00
Search period end: 02 June 2017 00:00
Orbit: 402 x 409 km, 51.6° (Epoch: 23 May)

Date Brightness Start Highest point End Pass type
(mag) Time Alt. Az. Time Alt. Az. Time Alt. Az.
23 May -0.4 00:58:36 10° NNW 00:59:53 12° N 01:01:11 10° NNE visible
23 May -0.4 02:36:05 10° NNW 02:37:32 12° N 02:38:59 10° NE visible
23 May -2.1 04:11:43 10° NW 04:14:46 36° NNE 04:17:49 10° E visible
23 May -2.1 20:52:16 10° SSE 20:54:17 15° SE 20:56:19 10° E visible
23 May -3.1 22:27:15 10° WSW 22:30:29 54° NNW 22:33:42 10° NE visible
24 May -0.5 00:05:40 10° NW 00:07:33 14° NNW 00:09:25 10° NNE visible
24 May -0.2 01:44:15 10° N 01:45:10 11° N 01:46:04 10° NNE visible
24 May -1.3 03:19:53 10° NNW 03:22:36 23° NNE 03:25:17 10° E visible
24 May -3.6 04:56:05 10° WNW 04:59:14 48° SW 05:02:23 10° SSE visible
24 May -4.0 21:35:08 10° SW 21:38:25 79° SE 21:41:43 10° NE visible
24 May -0.9 23:12:50 10° WNW 23:15:14 19° NNW 23:17:39 10° NNE visible
25 May -0.1 00:52:04 10° NNW 00:52:46 10° N 00:53:28 10° N visible
25 May -0.7 02:28:06 10° NNW 02:30:20 17° NNE 02:32:33 10° ENE visible
25 May -3.8 04:03:58 10° NW 04:07:15 83° NE 04:10:30 10° SE visible
25 May -3.3 20:43:21 10° SSW 20:46:26 38° SE 20:49:31 10° ENE visible
25 May -1.5 22:20:08 10° W 22:22:59 26° NNW 22:25:51 10° NNE visible
25 May -0.2 23:59:16 10° NNW 00:00:21 11° N 00:01:26 10° NNE visible
26 May -0.4 01:36:19 10° NNW 01:37:59 13° NNE 01:39:40 10° NE visible
26 May -2.7 03:12:00 10° NW 03:15:09 44° NNE 03:18:17 10° ESE visible
26 May -2.4 04:49:02 10° W 04:51:25 19° SW 04:53:47 10° S visible
26 May -2.5 21:27:39 10° WSW 21:30:48 43° NNW 21:33:58 10° NE visible
26 May -0.4 23:06:18 10° NW 23:07:57 13° NNW 23:09:37 10° NNE visible
27 May -0.3 00:44:30 10° NNW 00:45:36 11° N 00:46:42 10° NNE visible
27 May -1.7 02:20:06 10° NNW 02:22:58 27° NNE 02:23:06 27° NNE visible
27 May -2.2 04:01:12 21° S 04:01:12 21° S 04:02:31 10° SSE visible
27 May -0.7 22:13:23 10° WNW 22:15:35 17° NNW 22:17:49 10° NNE visible
27 May -0.3 23:52:27 10° NNW 23:53:10 11° N 23:53:53 10° NNE visible
28 May -0.9 01:28:16 10° NNW 01:30:05 18° N 01:30:05 18° N visible
28 May -1.1 21:20:35 10° W 21:23:17 23° NNW 21:25:59 10° NNE visible
28 May -0.4 22:59:48 10° NNW 23:00:43 11° N 23:01:38 10° NNE visible
29 May -0.7 00:36:26 10° NNW 00:38:19 14° NNE 00:38:53 14° NNE visible
29 May -0.5 22:06:49 10° NW 22:08:16 12° N 22:09:43 10° NNE visible
29 May -0.6 23:44:36 10° NNW 23:45:55 12° N 23:47:13 10° NNE visible
30 May -0.7 01:20:12 10° NW 01:20:39 13° NNW 01:20:39 13° NNW visible
30 May -0.8 21:13:50 10° NW 21:15:51 15° NNW 21:17:52 10° NNE visible
30 May -0.5 22:52:38 10° N 22:53:27 11° N 22:54:17 10° NNE visible
31 May -1.0 00:28:18 10° NNW 00:29:57 19° N 00:29:57 19° N visible
31 May -0.5 22:00:11 10° NNW 22:00:58 11° N 22:01:44 10° N visible
31 May -1.1 23:36:26 10° NNW 23:38:33 16° NNE 23:39:21 15° NE visible
01 Jun -0.7 21:07:14 10° NNW 21:08:28 12° N 21:09:43 10° NNE visible
01 Jun -0.8 22:44:34 10° NNW 22:46:07 13° NNE 22:47:39 10° NE visible
